History Data

Date (GMT-7:00) CPM ACPM uSv/h Latitude Longitude Altitude CO CO2 TVOC HCHO Air Pressure Temperature Humidity Type
2026-01-21 11:47:06 18 17.30 0.090000 41.649648 41.62752893 0 0 0 0 0 0 0 0 STD5.60
2026-01-21 11:42:04 24 17.20 0.120000 41.649648 41.62752893 0 0 0 0 0 0 0 0 STD5.60
2026-01-21 11:37:02 11 16.10 0.055000 41.649648 41.62752893 0 0 0 0 0 0 0 0 STD5.60
2026-01-21 11:32:01 16 16.60 0.080000 41.649648 41.62752893 0 0 0 0 0 0 0 0 STD5.60
2026-01-21 11:26:58 19 17.50 0.095000 41.649648 41.62752893 0 0 0 0 0 0 0 0 STD5.60
2026-01-21 11:21:56 15 18.90 0.075000 41.649648 41.62752893 0 0 0 0 0 0 0 0 STD5.60
2026-01-21 11:16:54 23 18.90 0.115000 41.649648 41.62752893 0 0 0 0 0 0 0 0 STD5.60
2026-01-21 11:11:52 19 16.30 0.095000 41.649648 41.62752893 0 0 0 0 0 0 0 0 STD5.60
2026-01-21 11:06:50 13 16.80 0.065000 41.649648 41.62752893 0 0 0 0 0 0 0 0 STD5.60
2026-01-21 11:01:48 19 16.20 0.095000 41.649648 41.62752893 0 0 0 0 0 0 0 0 STD5.60
2026-01-21 10:56:43 11 15.70 0.055000 41.649648 41.62752893 0 0 0 0 0 0 0 0 STD5.60
2026-01-21 10:51:40 26 17.80 0.130000 41.649648 41.62752893 0 0 0 0 0 0 0 0 STD5.60
2026-01-21 10:46:38 14 17.00 0.070000 41.649648 41.62752893 0 0 0 0 0 0 0 0 STD5.60
2026-01-21 10:41:36 14 16.70 0.070000 41.649648 41.62752893 0 0 0 0 0 0 0 0 STD5.60
2026-01-21 10:36:34 19 18.40 0.095000 41.649648 41.62752893 0 0 0 0 0 0 0 0 STD5.60
2026-01-21 10:31:32 16 17.90 0.080000 41.649648 41.62752893 0 0 0 0 0 0 0 0 STD5.60
2026-01-21 10:26:31 19 16.80 0.095000 41.649648 41.62752893 0 0 0 0 0 0 0 0 STD5.60
2026-01-21 10:21:28 20 19.20 0.100000 41.649648 41.62752893 0 0 0 0 0 0 0 0 STD5.60
2026-01-21 10:16:26 21 19.20 0.105000 41.649648 41.62752893 0 0 0 0 0 0 0 0 STD5.60
2026-01-21 10:11:24 11 16.90 0.055000 41.649648 41.62752893 0 0 0 0 0 0 0 0 STD5.60
2026-01-21 10:06:22 9 16.90 0.045000 41.649648 41.62752893 0 0 0 0 0 0 0 0 STD5.60
2026-01-21 10:01:20 18 16.80 0.090000 41.649648 41.62752893 0 0 0 0 0 0 0 0 STD5.60
2026-01-21 09:56:16 22 16.00 0.110000 41.649648 41.62752893 0 0 0 0 0 0 0 0 STD5.60
2026-01-21 09:51:14 17 16.50 0.085000 41.649648 41.62752893 0 0 0 0 0 0 0 0 STD5.60
2026-01-21 09:46:12 14 16.10 0.070000 41.649648 41.62752893 0 0 0 0 0 0 0 0 STD5.60
2026-01-21 09:41:10 15 16.00 0.075000 41.649648 41.62752893 0 0 0 0 0 0 0 0 STD5.60
2026-01-21 09:36:08 18 17.20 0.090000 41.649648 41.62752893 0 0 0 0 0 0 0 0 STD5.60
2026-01-21 09:31:05 21 18.10 0.105000 41.649648 41.62752893 0 0 0 0 0 0 0 0 STD5.60
2026-01-21 09:26:04 13 17.40 0.065000 41.649648 41.62752893 0 0 0 0 0 0 0 0 STD5.60
2026-01-21 09:21:01 11 15.60 0.055000 41.649648 41.62752893 0 0 0 0 0 0 0 0 STD5.60
2026-01-21 09:16:00 12 16.10 0.060000 41.649648 41.62752893 0 0 0 0 0 0 0 0 STD5.60
2026-01-21 09:10:57 21 19.10 0.105000 41.649648 41.62752893 0 0 0 0 0 0 0 0 STD5.60
2026-01-21 09:05:55 24 18.40 0.120000 41.649648 41.62752893 0 0 0 0 0 0 0 0 STD5.60
2026-01-21 09:00:53 14 16.20 0.070000 41.649648 41.62752893 0 0 0 0 0 0 0 0 STD5.60
2026-01-21 08:55:49 14 18.70 0.070000 41.649648 41.62752893 0 0 0 0 0 0 0 0 STD5.60
2026-01-21 08:50:47 20 20.20 0.100000 41.649648 41.62752893 0 0 0 0 0 0 0 0 STD5.60
2026-01-21 08:45:45 21 18.30 0.105000 41.649648 41.62752893 0 0 0 0 0 0 0 0 STD5.60
2026-01-21 08:40:42 15 16.80 0.075000 41.649648 41.62752893 0 0 0 0 0 0 0 0 STD5.60
2026-01-21 08:35:40 25 14.80 0.125000 41.649648 41.62752893 0 0 0 0 0 0 0 0 STD5.60
2026-01-21 08:30:39 17 16.50 0.085000 41.649648 41.62752893 0 0 0 0 0 0 0 0 STD5.60
2026-01-21 08:25:36 14 18.70 0.070000 41.649648 41.62752893 0 0 0 0 0 0 0 0 STD5.60
2026-01-21 08:20:34 15 17.10 0.075000 41.649648 41.62752893 0 0 0 0 0 0 0 0 STD5.60
2026-01-21 08:15:32 15 16.40 0.075000 41.649648 41.62752893 0 0 0 0 0 0 0 0 STD5.60
2026-01-21 08:10:30 19 16.70 0.095000 41.649648 41.62752893 0 0 0 0 0 0 0 0 STD5.60
2026-01-21 08:05:28 16 16.30 0.080000 41.649648 41.62752893 0 0 0 0 0 0 0 0 STD5.60
2026-01-21 08:00:26 17 16.50 0.085000 41.649648 41.62752893 0 0 0 0 0 0 0 0 STD5.60
2026-01-21 07:55:22 11 17.10 0.055000 41.649648 41.62752893 0 0 0 0 0 0 0 0 STD5.60
2026-01-21 07:50:20 11 17.20 0.055000 41.649648 41.62752893 0 0 0 0 0 0 0 0 STD5.60
2026-01-21 07:45:18 19 17.20 0.095000 41.649648 41.62752893 0 0 0 0 0 0 0 0 STD5.60
2026-01-21 07:40:16 19 16.30 0.095000 41.649648 41.62752893 0 0 0 0 0 0 0 0 STD5.60
2026-01-21 07:35:13 18 17.10 0.090000 41.649648 41.62752893 0 0 0 0 0 0 0 0 STD5.60
2026-01-21 07:30:12 10 18.50 0.050000 41.649648 41.62752893 0 0 0 0 0 0 0 0 STD5.60
2026-01-21 07:25:10 19 18.70 0.095000 41.649648 41.62752893 0 0 0 0 0 0 0 0 STD5.60
2026-01-21 07:20:09 20 18.30 0.100000 41.649648 41.62752893 0 0 0 0 0 0 0 0 STD5.60
2026-01-21 07:15:05 16 18.00 0.080000 41.649648 41.62752893 0 0 0 0 0 0 0 0 STD5.60
2026-01-21 07:10:03 17 18.10 0.085000 41.649648 41.62752893 0 0 0 0 0 0 0 0 STD5.60
2026-01-21 07:05:01 13 17.00 0.065000 41.649648 41.62752893 0 0 0 0 0 0 0 0 STD5.60
2026-01-21 06:59:59 22 17.20 0.110000 41.649648 41.62752893 0 0 0 0 0 0 0 0 STD5.60
2026-01-21 06:54:55 26 19.50 0.130000 41.649648 41.62752893 0 0 0 0 0 0 0 0 STD5.60
2026-01-21 06:49:53 24 18.50 0.120000 41.649648 41.62752893 0 0 0 0 0 0 0 0 STD5.60
2026-01-21 06:44:51 14 18.60 0.070000 41.649648 41.62752893 0 0 0 0 0 0 0 0 STD5.60
2026-01-21 06:39:49 14 18.90 0.070000 41.649648 41.62752893 0 0 0 0 0 0 0 0 STD5.60
2026-01-21 06:34:47 15 17.70 0.075000 41.649648 41.62752893 0 0 0 0 0 0 0 0 STD5.60
2026-01-21 06:29:45 10 18.00 0.050000 41.649648 41.62752893 0 0 0 0 0 0 0 0 STD5.60
2026-01-21 06:24:43 24 17.30 0.120000 41.649648 41.62752893 0 0 0 0 0 0 0 0 STD5.60
2026-01-21 06:19:41 10 15.30 0.050000 41.649648 41.62752893 0 0 0 0 0 0 0 0 STD5.60
2026-01-21 06:14:39 12 14.80 0.060000 41.649648 41.62752893 0 0 0 0 0 0 0 0 STD5.60
2026-01-21 06:09:37 22 17.90 0.110000 41.649648 41.62752893 0 0 0 0 0 0 0 0 STD5.60
2026-01-21 06:04:35 22 18.20 0.110000 41.649648 41.62752893 0 0 0 0 0 0 0 0 STD5.60
2026-01-21 05:59:32 16 16.50 0.080000 41.649648 41.62752893 0 0 0 0 0 0 0 0 STD5.60
2026-01-21 05:54:28 15 15.40 0.075000 41.649648 41.62752893 0 0 0 0 0 0 0 0 STD5.60
2026-01-21 05:49:25 18 15.90 0.090000 41.649648 41.62752893 0 0 0 0 0 0 0 0 STD5.60
2026-01-21 05:44:23 15 18.10 0.075000 41.649648 41.62752893 0 0 0 0 0 0 0 0 STD5.60
2026-01-21 05:39:22 16 20.80 0.080000 41.649648 41.62752893 0 0 0 0 0 0 0 0 STD5.60
2026-01-21 05:34:19 29 19.60 0.145000 41.649648 41.62752893 0 0 0 0 0 0 0 0 STD5.60
2026-01-21 05:29:17 16 17.10 0.080000 41.649648 41.62752893 0 0 0 0 0 0 0 0 STD5.60
2026-01-21 05:24:15 17 16.10 0.085000 41.649648 41.62752893 0 0 0 0 0 0 0 0 STD5.60
2026-01-21 05:19:13 16 16.10 0.080000 41.649648 41.62752893 0 0 0 0 0 0 0 0 STD5.60
2026-01-21 05:14:12 19 16.00 0.095000 41.649648 41.62752893 0 0 0 0 0 0 0 0 STD5.60
2026-01-21 05:09:09 17 15.70 0.085000 41.649648 41.62752893 0 0 0 0 0 0 0 0 STD5.60
2026-01-21 05:04:07 15 17.60 0.075000 41.649648 41.62752893 0 0 0 0 0 0 0 0 STD5.60
2026-01-21 04:59:05 19 18.10 0.095000 41.649648 41.62752893 0 0 0 0 0 0 0 0 STD5.60
2026-01-21 04:54:02 18 17.00 0.090000 41.649648 41.62752893 0 0 0 0 0 0 0 0 STD5.60
2026-01-21 04:48:59 17 18.10 0.085000 41.649648 41.62752893 0 0 0 0 0 0 0 0 STD5.60
2026-01-21 04:43:57 16 18.70 0.080000 41.649648 41.62752893 0 0 0 0 0 0 0 0 STD5.60
2026-01-21 04:38:55 19 17.30 0.095000 41.649648 41.62752893 0 0 0 0 0 0 0 0 STD5.60
2026-01-21 04:33:53 17 17.60 0.085000 41.649648 41.62752893 0 0 0 0 0 0 0 0 STD5.60
2026-01-21 04:28:51 16 18.30 0.080000 41.649648 41.62752893 0 0 0 0 0 0 0 0 STD5.60
2026-01-21 04:23:49 16 19.20 0.080000 41.649648 41.62752893 0 0 0 0 0 0 0 0 STD5.60
2026-01-21 04:18:46 15 19.60 0.075000 41.649648 41.62752893 0 0 0 0 0 0 0 0 STD5.60
2026-01-21 04:13:44 24 17.80 0.120000 41.649648 41.62752893 0 0 0 0 0 0 0 0 STD5.60
2026-01-21 04:08:42 17 17.80 0.085000 41.649648 41.62752893 0 0 0 0 0 0 0 0 STD5.60
2026-01-21 04:03:40 18 19.30 0.090000 41.649648 41.62752893 0 0 0 0 0 0 0 0 STD5.60
2026-01-21 03:58:39 24 18.00 0.120000 41.649648 41.62752893 0 0 0 0 0 0 0 0 STD5.60
2026-01-21 03:53:35 14 17.00 0.070000 41.649648 41.62752893 0 0 0 0 0 0 0 0 STD5.60
2026-01-21 03:48:32 23 17.50 0.115000 41.649648 41.62752893 0 0 0 0 0 0 0 0 STD5.60
2026-01-21 03:43:30 15 17.40 0.075000 41.649648 41.62752893 0 0 0 0 0 0 0 0 STD5.60
2026-01-21 03:38:28 24 17.00 0.120000 41.649648 41.62752893 0 0 0 0 0 0 0 0 STD5.60
2026-01-21 03:33:26 19 17.30 0.095000 41.649648 41.62752893 0 0 0 0 0 0 0 0 STD5.60
2026-01-21 03:28:24 15 17.60 0.075000 41.649648 41.62752893 0 0 0 0 0 0 0 0 STD5.60
2026-01-21 03:23:22 19 14.50 0.095000 41.649648 41.62752893 0 0 0 0 0 0 0 0 STD5.60
2026-01-21 03:18:19 9 15.10 0.045000 41.649648 41.62752893 0 0 0 0 0 0 0 0 STD5.60
2026-01-21 03:13:17 18 18.50 0.090000 41.649648 41.62752893 0 0 0 0 0 0 0 0 STD5.60
2026-01-21 03:08:15 20 17.60 0.100000 41.649648 41.62752893 0 0 0 0 0 0 0 0 STD5.60
2026-01-21 03:03:13 23 15.00 0.115000 41.649648 41.62752893 0 0 0 0 0 0 0 0 STD5.60
2026-01-21 02:58:12 15 16.80 0.075000 41.649648 41.62752893 0 0 0 0 0 0 0 0 STD5.60
2026-01-21 02:53:07 18 17.80 0.090000 41.649648 41.62752893 0 0 0 0 0 0 0 0 STD5.60
2026-01-21 02:48:05 16 16.30 0.080000 41.649648 41.62752893 0 0 0 0 0 0 0 0 STD5.60
2026-01-21 02:43:03 16 16.30 0.080000 41.649648 41.62752893 0 0 0 0 0 0 0 0 STD5.60
2026-01-21 02:38:01 13 15.60 0.065000 41.649648 41.62752893 0 0 0 0 0 0 0 0 STD5.60
2026-01-21 02:32:59 16 14.80 0.080000 41.649648 41.62752893 0 0 0 0 0 0 0 0 STD5.60
2026-01-21 02:27:57 15 18.20 0.075000 41.649648 41.62752893 0 0 0 0 0 0 0 0 STD5.60
2026-01-21 02:22:56 25 19.90 0.125000 41.649648 41.62752893 0 0 0 0 0 0 0 0 STD5.60
2026-01-21 02:17:53 21 18.20 0.105000 41.649648 41.62752893 0 0 0 0 0 0 0 0 STD5.60
2026-01-21 02:12:51 22 17.50 0.110000 41.649648 41.62752893 0 0 0 0 0 0 0 0 STD5.60
2026-01-21 02:07:49 18 17.40 0.090000 41.649648 41.62752893 0 0 0 0 0 0 0 0 STD5.60
2026-01-21 02:02:47 20 17.30 0.100000 41.649648 41.62752893 0 0 0 0 0 0 0 0 STD5.60
2026-01-21 01:57:45 17 17.30 0.085000 41.649648 41.62752893 0 0 0 0 0 0 0 0 STD5.60
2026-01-21 01:52:41 10 18.40 0.050000 41.649648 41.62752893 0 0 0 0 0 0 0 0 STD5.60
2026-01-21 01:47:39 13 18.80 0.065000 41.649648 41.62752893 0 0 0 0 0 0 0 0 STD5.60
2026-01-21 01:42:37 15 15.90 0.075000 41.649648 41.62752893 0 0 0 0 0 0 0 0 STD5.60
2026-01-21 01:37:35 12 15.60 0.060000 41.649648 41.62752893 0 0 0 0 0 0 0 0 STD5.60
2026-01-21 01:32:33 13 18.00 0.065000 41.649648 41.62752893 0 0 0 0 0 0 0 0 STD5.60
2026-01-21 01:27:31 15 17.90 0.075000 41.649648 41.62752893 0 0 0 0 0 0 0 0 STD5.60
2026-01-21 01:22:30 14 16.80 0.070000 41.649648 41.62752893 0 0 0 0 0 0 0 0 STD5.60
2026-01-21 01:17:27 14 17.00 0.070000 41.649648 41.62752893 0 0 0 0 0 0 0 0 STD5.60
2026-01-21 01:12:25 19 17.00 0.095000 41.649648 41.62752893 0 0 0 0 0 0 0 0 STD5.60
2026-01-21 01:07:23 12 16.90 0.060000 41.649648 41.62752893 0 0 0 0 0 0 0 0 STD5.60
2026-01-21 01:02:21 13 18.40 0.065000 41.649648 41.62752893 0 0 0 0 0 0 0 0 STD5.60
2026-01-21 00:57:19 16 18.40 0.080000 41.649648 41.62752893 0 0 0 0 0 0 0 0 STD5.60
2026-01-21 00:52:14 22 17.70 0.110000 41.649648 41.62752893 0 0 0 0 0 0 0 0 STD5.60
2026-01-21 00:47:11 20 17.00 0.100000 41.649648 41.62752893 0 0 0 0 0 0 0 0 STD5.60
2026-01-21 00:42:09 21 15.70 0.105000 41.649648 41.62752893 0 0 0 0 0 0 0 0 STD5.60
2026-01-21 00:37:07 14 16.00 0.070000 41.649648 41.62752893 0 0 0 0 0 0 0 0 STD5.60
2026-01-21 00:32:05 16 18.60 0.080000 41.649648 41.62752893 0 0 0 0 0 0 0 0 STD5.60
2026-01-21 00:27:03 24 20.20 0.120000 41.649648 41.62752893 0 0 0 0 0 0 0 0 STD5.60
2026-01-21 00:22:02 15 18.60 0.075000 41.649648 41.62752893 0 0 0 0 0 0 0 0 STD5.60
2026-01-21 00:16:59 19 17.50 0.095000 41.649648 41.62752893 0 0 0 0 0 0 0 0 STD5.60
2026-01-21 00:11:57 20 17.20 0.100000 41.649648 41.62752893 0 0 0 0 0 0 0 0 STD5.60
2026-01-21 00:06:55 26 16.80 0.130000 41.649648 41.62752893 0 0 0 0 0 0 0 0 STD5.60
2026-01-21 00:01:53 19 18.10 0.095000 41.649648 41.62752893 0 0 0 0 0 0 0 0 STD5.60
2026-01-20 23:56:51 18 19.80 0.090000 41.649648 41.62752893 0 0 0 0 0 0 0 0 STD5.60
2026-01-20 23:51:47 16 19.70 0.080000 41.649648 41.62752893 0 0 0 0 0 0 0 0 STD5.60
2026-01-20 23:46:45 20 17.30 0.100000 41.649648 41.62752893 0 0 0 0 0 0 0 0 STD5.60
2026-01-20 23:41:43 18 17.00 0.090000 41.649648 41.62752893 0 0 0 0 0 0 0 0 STD5.60
2026-01-20 23:36:40 24 18.20 0.120000 41.649648 41.62752893 0 0 0 0 0 0 0 0 STD5.60
2026-01-20 23:31:38 12 17.70 0.060000 41.649648 41.62752893 0 0 0 0 0 0 0 0 STD5.60
2026-01-20 23:26:36 17 17.40 0.085000 41.649648 41.62752893 0 0 0 0 0 0 0 0 STD5.60
2026-01-20 23:21:35 18 16.10 0.090000 41.649648 41.62752893 0 0 0 0 0 0 0 0 STD5.60
2026-01-20 23:16:32 19 15.60 0.095000 41.649648 41.62752893 0 0 0 0 0 0 0 0 STD5.60
2026-01-20 23:11:30 17 17.20 0.085000 41.649648 41.62752893 0 0 0 0 0 0 0 0 STD5.60
2026-01-20 23:06:28 16 17.20 0.080000 41.649648 41.62752893 0 0 0 0 0 0 0 0 STD5.60
2026-01-20 23:01:25 15 16.80 0.075000 41.649648 41.62752893 0 0 0 0 0 0 0 0 STD5.60
2026-01-20 22:56:24 16 17.80 0.080000 41.649648 41.62752893 0 0 0 0 0 0 0 0 STD5.60
2026-01-20 22:51:18 23 17.80 0.115000 41.649648 41.62752893 0 0 0 0 0 0 0 0 STD5.60
2026-01-20 22:46:16 21 17.20 0.105000 41.649648 41.62752893 0 0 0 0 0 0 0 0 STD5.60
2026-01-20 22:41:14 16 18.90 0.080000 41.649648 41.62752893 0 0 0 0 0 0 0 0 STD5.60
2026-01-20 22:36:12 19 18.20 0.095000 41.649648 41.62752893 0 0 0 0 0 0 0 0 STD5.60
2026-01-20 22:31:10 16 17.60 0.080000 41.649648 41.62752893 0 0 0 0 0 0 0 0 STD5.60
2026-01-20 22:26:08 20 17.50 0.100000 41.649648 41.62752893 0 0 0 0 0 0 0 0 STD5.60
2026-01-20 22:21:06 15 18.30 0.075000 41.649648 41.62752893 0 0 0 0 0 0 0 0 STD5.60
2026-01-20 22:16:04 11 19.30 0.055000 41.649648 41.62752893 0 0 0 0 0 0 0 0 STD5.60
2026-01-20 22:11:02 10 17.10 0.050000 41.649648 41.62752893 0 0 0 0 0 0 0 0 STD5.60
2026-01-20 22:06:00 15 17.00 0.075000 41.649648 41.62752893 0 0 0 0 0 0 0 0 STD5.60
2026-01-20 22:00:58 18 16.40 0.090000 41.649648 41.62752893 0 0 0 0 0 0 0 0 STD5.60
2026-01-20 21:55:56 13 15.50 0.065000 41.649648 41.62752893 0 0 0 0 0 0 0 0 STD5.60
2026-01-20 21:50:52 15 16.70 0.075000 41.649648 41.62752893 0 0 0 0 0 0 0 0 STD5.60
2026-01-20 21:45:50 13 16.90 0.065000 41.649648 41.62752893 0 0 0 0 0 0 0 0 STD5.60
2026-01-20 21:40:48 15 15.60 0.075000 41.649648 41.62752893 0 0 0 0 0 0 0 0 STD5.60
2026-01-20 21:35:46 10 17.90 0.050000 41.649648 41.62752893 0 0 0 0 0 0 0 0 STD5.60
2026-01-20 21:30:44 18 19.10 0.090000 41.649648 41.62752893 0 0 0 0 0 0 0 0 STD5.60
2026-01-20 21:25:42 24 17.90 0.120000 41.649648 41.62752893 0 0 0 0 0 0 0 0 STD5.60
2026-01-20 21:20:40 19 18.40 0.095000 41.649648 41.62752893 0 0 0 0 0 0 0 0 STD5.60
2026-01-20 21:15:38 14 17.50 0.070000 41.649648 41.62752893 0 0 0 0 0 0 0 0 STD5.60
2026-01-20 21:10:35 11 18.20 0.055000 41.649648 41.62752893 0 0 0 0 0 0 0 0 STD5.60
2026-01-20 21:05:33 20 19.00 0.100000 41.649648 41.62752893 0 0 0 0 0 0 0 0 STD5.60
2026-01-20 21:00:32 19 19.10 0.095000 41.649648 41.62752893 0 0 0 0 0 0 0 0 STD5.60
2026-01-20 20:55:28 28 17.50 0.140000 41.649648 41.62752893 0 0 0 0 0 0 0 0 STD5.60
2026-01-20 20:50:26 14 16.50 0.070000 41.649648 41.62752893 0 0 0 0 0 0 0 0 STD5.60
2026-01-20 20:45:24 23 17.30 0.115000 41.649648 41.62752893 0 0 0 0 0 0 0 0 STD5.60
2026-01-20 20:40:22 25 18.10 0.125000 41.649648 41.62752893 0 0 0 0 0 0 0 0 STD5.60
2026-01-20 20:35:20 16 17.90 0.080000 41.649648 41.62752893 0 0 0 0 0 0 0 0 STD5.60
2026-01-20 20:30:18 18 16.60 0.090000 41.649648 41.62752893 0 0 0 0 0 0 0 0 STD5.60
2026-01-20 20:25:16 15 16.70 0.075000 41.649648 41.62752893 0 0 0 0 0 0 0 0 STD5.60
2026-01-20 20:20:14 19 16.70 0.095000 41.649648 41.62752893 0 0 0 0 0 0 0 0 STD5.60
2026-01-20 20:15:12 22 18.40 0.110000 41.649648 41.62752893 0 0 0 0 0 0 0 0 STD5.60
2026-01-20 20:10:09 21 18.20 0.105000 41.649648 41.62752893 0 0 0 0 0 0 0 0 STD5.60
2026-01-20 20:05:08 16 16.80 0.080000 41.649648 41.62752893 0 0 0 0 0 0 0 0 STD5.60
2026-01-20 20:00:06 22 18.80 0.110000 41.649648 41.62752893 0 0 0 0 0 0 0 0 STD5.60
2026-01-20 19:55:00 29 18.50 0.145000 41.649648 41.62752893 0 0 0 0 0 0 0 0 STD5.60
2026-01-20 19:49:58 20 17.20 0.100000 41.649648 41.62752893 0 0 0 0 0 0 0 0 STD5.60
2026-01-20 19:44:56 15 17.10 0.075000 41.649648 41.62752893 0 0 0 0 0 0 0 0 STD5.60
2026-01-20 19:39:54 15 15.40 0.075000 41.649648 41.62752893 0 0 0 0 0 0 0 0 STD5.60
2026-01-20 19:34:52 14 14.70 0.070000 41.649648 41.62752893 0 0 0 0 0 0 0 0 STD5.60
2026-01-20 19:29:50 20 16.10 0.100000 41.649648 41.62752893 0 0 0 0 0 0 0 0 STD5.60
2026-01-20 19:24:47 13 18.60 0.065000 41.649648 41.62752893 0 0 0 0 0 0 0 0 STD5.60
2026-01-20 19:19:45 22 20.00 0.110000 41.649648 41.62752893 0 0 0 0 0 0 0 0 STD5.60
2026-01-20 19:14:43 19 18.50 0.095000 41.649648 41.62752893 0 0 0 0 0 0 0 0 STD5.60
2026-01-20 19:09:41 15 16.70 0.075000 41.649648 41.62752893 0 0 0 0 0 0 0 0 STD5.60
2026-01-20 19:04:40 16 17.00 0.080000 41.649648 41.62752893 0 0 0 0 0 0 0 0 STD5.60
2026-01-20 18:59:40 24 18.60 0.120000 41.649648 41.62752893 0 0 0 0 0 0 0 0 STD5.60
2026-01-20 18:54:31 16 17.20 0.080000 41.649648 41.62752893 0 0 0 0 0 0 0 0 STD5.60
2026-01-20 18:49:29 13 15.70 0.065000 41.649648 41.62752893 0 0 0 0 0 0 0 0 STD5.60
2026-01-19 08:34:13 26 14.70 0.130000 41.649648 41.62752893 0 0 0 0 0 0 0 0 STD5.60
2026-01-19 08:29:11 13 13.90 0.065000 41.649648 41.62752893 0 0 0 0 0 0 0 0 STD5.60
2026-01-19 08:24:09 15 15.90 0.075000 41.649648 41.62752893 0 0 0 0 0 0 0 0 STD5.60
2026-01-19 08:19:07 16 16.30 0.080000 41.649648 41.62752893 0 0 0 0 0 0 0 0 STD5.60
2026-01-19 08:14:05 17 18.60 0.085000 41.649648 41.62752893 0 0 0 0 0 0 0 0 STD5.60
2026-01-19 08:09:03 23 19.40 0.115000 41.649648 41.62752893 0 0 0 0 0 0 0 0 STD5.60
2026-01-19 08:04:02 14 16.60 0.070000 41.649648 41.62752893 0 0 0 0 0 0 0 0 STD5.60
2026-01-19 07:58:59 14 16.10 0.070000 41.649648 41.62752893 0 0 0 0 0 0 0 0 STD5.60
2026-01-19 07:53:56 21 17.70 0.105000 41.649648 41.62752893 0 0 0 0 0 0 0 0 STD5.60
2026-01-19 07:48:54 15 17.70 0.075000 41.649648 41.62752893 0 0 0 0 0 0 0 0 STD5.60
2026-01-19 07:43:50 20 17.00 0.100000 41.649648 41.62752893 0 0 0 0 0 0 0 0 STD5.60
2026-01-19 07:38:48 22 17.20 0.110000 41.649648 41.62752893 0 0 0 0 0 0 0 0 STD5.60
2026-01-19 07:33:46 20 18.40 0.100000 41.649648 41.62752893 0 0 0 0 0 0 0 0 STD5.60
2026-01-19 07:28:43 19 18.80 0.095000 41.649648 41.62752893 0 0 0 0 0 0 0 0 STD5.60
2026-01-19 07:23:41 22 16.00 0.110000 41.649648 41.62752893 0 0 0 0 0 0 0 0 STD5.60
2026-01-19 07:18:39 15 15.60 0.075000 41.649648 41.62752893 0 0 0 0 0 0 0 0 STD5.60
2026-01-19 07:13:37 14 18.10 0.070000 41.649648 41.62752893 0 0 0 0 0 0 0 0 STD5.60
2026-01-19 07:08:35 22 16.30 0.110000 41.649648 41.62752893 0 0 0 0 0 0 0 0 STD5.60
2026-01-19 07:03:33 11 14.90 0.055000 41.649648 41.62752893 0 0 0 0 0 0 0 0 STD5.60
2026-01-19 06:58:31 17 16.70 0.085000 41.649648 41.62752893 0 0 0 0 0 0 0 0 STD5.60
2026-01-19 06:53:29 20 19.10 0.100000 41.649648 41.62752893 0 0 0 0 0 0 0 0 STD5.60
2026-01-19 06:48:27 16 21.20 0.080000 41.649648 41.62752893 0 0 0 0 0 0 0 0 STD5.60
2026-01-19 06:43:23 30 21.10 0.150000 41.649648 41.62752893 0 0 0 0 0 0 0 0 STD5.60
2026-01-19 06:38:21 22 17.90 0.110000 41.649648 41.62752893 0 0 0 0 0 0 0 0 STD5.60
2026-01-19 06:33:20 11 14.50 0.055000 41.649648 41.62752893 0 0 0 0 0 0 0 0 STD5.60
2026-01-19 06:28:17 12 16.10 0.060000 41.649648 41.62752893 0 0 0 0 0 0 0 0 STD5.60
2026-01-19 06:23:15 22 18.50 0.110000 41.649648 41.62752893 0 0 0 0 0 0 0 0 STD5.60
2026-01-19 06:18:13 15 17.70 0.075000 41.649648 41.62752893 0 0 0 0 0 0 0 0 STD5.60
2026-01-19 06:13:12 14 18.40 0.070000 41.649648 41.62752893 0 0 0 0 0 0 0 0 STD5.60
2026-01-19 06:08:09 18 19.30 0.090000 41.649648 41.62752893 0 0 0 0 0 0 0 0 STD5.60
2026-01-19 06:03:07 14 17.40 0.070000 41.649648 41.62752893 0 0 0 0 0 0 0 0 STD5.60
2026-01-19 05:58:05 23 16.30 0.115000 41.649648 41.62752893 0 0 0 0 0 0 0 0 STD5.60
2026-01-19 05:53:03 13 18.10 0.065000 41.649648 41.62752893 0 0 0 0 0 0 0 0 STD5.60
2026-01-19 05:48:01 19 18.40 0.095000 41.649648 41.62752893 0 0 0 0 0 0 0 0 STD5.60
2026-01-19 05:42:57 19 19.00 0.095000 41.649648 41.62752893 0 0 0 0 0 0 0 0 STD5.60
2026-01-19 05:37:54 22 20.10 0.110000 41.649648 41.62752893 0 0 0 0 0 0 0 0 STD5.60
2026-01-19 05:32:53 13 18.10 0.065000 41.649648 41.62752893 0 0 0 0 0 0 0 0 STD5.60
2026-01-19 05:27:50 17 18.40 0.085000 41.649648 41.62752893 0 0 0 0 0 0 0 0 STD5.60
2026-01-19 05:22:49 23 20.70 0.115000 41.649648 41.62752893 0 0 0 0 0 0 0 0 STD5.60
2026-01-19 05:17:46 30 19.90 0.150000 41.649648 41.62752893 0 0 0 0 0 0 0 0 STD5.60
2026-01-19 05:12:44 20 19.90 0.100000 41.649648 41.62752893 0 0 0 0 0 0 0 0 STD5.60
2026-01-19 05:07:42 26 18.80 0.130000 41.649648 41.62752893 0 0 0 0 0 0 0 0 STD5.60
2026-01-19 05:02:40 12 17.20 0.060000 41.649648 41.62752893 0 0 0 0 0 0 0 0 STD5.60
2026-01-19 04:57:39 21 17.00 0.105000 41.649648 41.62752893 0 0 0 0 0 0 0 0 STD5.60
2026-01-19 04:52:36 20 16.20 0.100000 41.649648 41.62752893 0 0 0 0 0 0 0 0 STD5.60
2026-01-19 04:47:34 16 17.00 0.080000 41.649648 41.62752893 0 0 0 0 0 0 0 0 STD5.60
2026-01-19 04:42:30 19 18.70 0.095000 41.649648 41.62752893 0 0 0 0 0 0 0 0 STD5.60
2026-01-19 04:37:28 17 20.10 0.085000 41.649648 41.62752893 0 0 0 0 0 0 0 0 STD5.60
2026-01-19 04:32:26 23 19.70 0.115000 41.649648 41.62752893 0 0 0 0 0 0 0 0 STD5.60
2026-01-19 04:27:23 12 17.80 0.060000 41.649648 41.62752893 0 0 0 0 0 0 0 0 STD5.60
2026-01-19 04:22:21 21 17.70 0.105000 41.649648 41.62752893 0 0 0 0 0 0 0 0 STD5.60
2026-01-19 04:17:19 15 18.50 0.075000 41.649648 41.62752893 0 0 0 0 0 0 0 0 STD5.60
2026-01-19 04:12:17 17 17.90 0.085000 41.649648 41.62752893 0 0 0 0 0 0 0 0 STD5.60
2026-01-19 04:07:15 13 18.30 0.065000 41.649648 41.62752893 0 0 0 0 0 0 0 0 STD5.60
2026-01-19 04:02:13 15 18.70 0.075000 41.649648 41.62752893 0 0 0 0 0 0 0 0 STD5.60
2026-01-19 03:57:11 13 16.10 0.065000 41.649648 41.62752893 0 0 0 0 0 0 0 0 STD5.60
2026-01-19 03:52:09 14 15.50 0.070000 41.649648 41.62752893 0 0 0 0 0 0 0 0 STD5.60
2026-01-19 03:47:08 18 18.30 0.090000 41.649648 41.62752893 0 0 0 0 0 0 0 0 STD5.60
2026-01-19 03:42:03 13 18.80 0.065000 41.649648 41.62752893 0 0 0 0 0 0 0 0 STD5.60
2026-01-19 03:37:01 11 16.90 0.055000 41.649648 41.62752893 0 0 0 0 0 0 0 0 STD5.60
2026-01-19 03:31:59 18 16.70 0.090000 41.649648 41.62752893 0 0 0 0 0 0 0 0 STD5.60
2026-01-19 03:26:57 17 17.80 0.085000 41.649648 41.62752893 0 0 0 0 0 0 0 0 STD5.60
2026-01-19 03:21:54 21 19.30 0.105000 41.649648 41.62752893 0 0 0 0 0 0 0 0 STD5.60
2026-01-19 03:16:53 15 18.20 0.075000 41.649648 41.62752893 0 0 0 0 0 0 0 0 STD5.60
2026-01-19 03:11:51 15 17.50 0.075000 41.649648 41.62752893 0 0 0 0 0 0 0 0 STD5.60
2026-01-19 03:06:49 22 17.60 0.110000 41.649648 41.62752893 0 0 0 0 0 0 0 0 STD5.60
2026-01-19 03:01:47 16 17.90 0.080000 41.649648 41.62752893 0 0 0 0 0 0 0 0 STD5.60
2026-01-19 02:56:45 31 19.60 0.155000 41.649648 41.62752893 0 0 0 0 0 0 0 0 STD5.60
2026-01-19 02:51:42 21 18.10 0.105000 41.649648 41.62752893 0 0 0 0 0 0 0 0 STD5.60
2026-01-19 02:46:40 15 16.90 0.075000 41.649648 41.62752893 0 0 0 0 0 0 0 0 STD5.60
2026-01-19 02:41:35 20 17.60 0.100000 41.649648 41.62752893 0 0 0 0 0 0 0 0 STD5.60
2026-01-19 02:36:33 15 17.50 0.075000 41.649648 41.62752893 0 0 0 0 0 0 0 0 STD5.60
2026-01-19 02:31:31 16 16.70 0.080000 41.649648 41.62752893 0 0 0 0 0 0 0 0 STD5.60
2026-01-19 02:26:29 15 17.00 0.075000 41.649648 41.62752893 0 0 0 0 0 0 0 0 STD5.60
2026-01-19 02:21:27 14 18.00 0.070000 41.649648 41.62752893 0 0 0 0 0 0 0 0 STD5.60
2026-01-19 02:16:25 24 17.30 0.120000 41.649648 41.62752893 0 0 0 0 0 0 0 0 STD5.60
2026-01-19 02:11:23 13 19.40 0.065000 41.649648 41.62752893 0 0 0 0 0 0 0 0 STD5.60
2026-01-19 02:06:20 28 20.70 0.140000 41.649648 41.62752893 0 0 0 0 0 0 0 0 STD5.60
2026-01-19 02:01:19 28 19.20 0.140000 41.649648 41.62752893 0 0 0 0 0 0 0 0 STD5.60
2026-01-19 01:56:16 24 18.20 0.120000 41.649648 41.62752893 0 0 0 0 0 0 0 0 STD5.60
2026-01-19 01:51:14 19 17.10 0.095000 41.649648 41.62752893 0 0 0 0 0 0 0 0 STD5.60
2026-01-19 01:46:13 23 17.00 0.115000 41.649648 41.62752893 0 0 0 0 0 0 0 0 STD5.60
2026-01-19 01:41:09 16 18.30 0.080000 41.649648 41.62752893 0 0 0 0 0 0 0 0 STD5.60
2026-01-19 01:36:07 22 18.90 0.110000 41.649648 41.62752893 0 0 0 0 0 0 0 0 STD5.60
2026-01-19 01:31:05 25 19.80 0.125000 41.649648 41.62752893 0 0 0 0 0 0 0 0 STD5.60
2026-01-19 01:26:03 27 20.50 0.135000 41.649648 41.62752893 0 0 0 0 0 0 0 0 STD5.60
2026-01-19 01:21:00 13 18.20 0.065000 41.649648 41.62752893 0 0 0 0 0 0 0 0 STD5.60
2026-01-19 01:15:58 18 17.00 0.090000 41.649648 41.62752893 0 0 0 0 0 0 0 0 STD5.60
2026-01-19 01:10:56 18 18.10 0.090000 41.649648 41.62752893 0 0 0 0 0 0 0 0 STD5.60
2026-01-19 01:05:54 14 20.00 0.070000 41.649648 41.62752893 0 0 0 0 0 0 0 0 STD5.60
2026-01-19 01:00:52 16 18.80 0.080000 41.649648 41.62752893 0 0 0 0 0 0 0 0 STD5.60
2026-01-19 00:55:49 12 18.60 0.060000 41.649648 41.62752893 0 0 0 0 0 0 0 0 STD5.60
2026-01-19 00:50:47 19 20.00 0.095000 41.649648 41.62752893 0 0 0 0 0 0 0 0 STD5.60
2026-01-19 00:45:45 13 19.40 0.065000 41.649648 41.62752893 0 0 0 0 0 0 0 0 STD5.60
2026-01-19 00:40:42 14 18.40 0.070000 41.649648 41.62752893 0 0 0 0 0 0 0 0 STD5.60
2026-01-19 00:35:39 19 18.00 0.095000 41.649648 41.62752893 0 0 0 0 0 0 0 0 STD5.60
2026-01-19 00:30:37 12 17.50 0.060000 41.649648 41.62752893 0 0 0 0 0 0 0 0 STD5.60
Geiger Counter World Map       A real time radiation map.     Copyright 2015 All rights reserved.